User: anonymous   Login
Location: Unspecified
(0.0000°N, 0.0000°E)
Time: 06:45:54
(UTC+00:00)
Language:

SL-12 R/B(2) - Orbit

View from above orbital plane
View from above orbital plane
View from above satellite
View from above satellite

Ground track
Ground track

The orbit data is extracted from the following two-line orbital elements,

1 26486U 00051D   21292.06547244 -.00000115  00000-0  00000+0 0  9997
2 26486  62.9424   8.4766 7589149 272.3331  26.4912  1.45765154112411
Epoch (UTC): 19 October 2021 01:34:16
Eccentricity: 0.7589149
inclination: 62.9424°
perigee height: 1543 km
apogee height: 51414 km
right ascension of ascending node: 8.4766°
argument of perigee: 272.3331°
revolutions per day: 1.45765154
mean anomaly at epoch: 26.4912°
orbit number at epoch: 11241

The dashed part of the orbit path shows where the satellite is in the earth's shadow,  

DLR